{"data":{"norad_id":48101,"epoch":"2026-09-19T18:52:15.851712Z","epoch_age_seconds":91543,"freshness":"FRESH","line1":"1 48101U 21027K   26262.78629458 -.00000522  00000+0 -50608-5 0  9997","line2":"2 48101  53.1621 331.7672 0001556  61.6464 298.4694 15.31690050302408","mean_motion":15.3169005,"eccentricity":0.0001556,"inclination_deg":53.1621,"raan_deg":331.7672,"arg_perigee_deg":61.6464,"mean_anomaly_deg":298.4694,"bstar":-5.0608e-6,"rev_number":30240,"period_min":94.013798679439,"perigee_km":469.70396594281,"apogee_km":471.8353456941,"semimajor_km":6848.9066558185,"source":"CELESTRAK","updated_at":"2026-09-20T09:00:38.762712Z"}}